Lapse_Rate
5.7 5.6 5.6 5.6 5.4 5.3 5.5 5.3 5.4 5.5 5.6 5.4 5.4 5.4 5.5 5.4 5.3 5.3 5.4 5.4 5.4 5.6 5.5 5.5 5.6 5.6 5.6 5.6 5.7 5.6 5.5 5.4 5.4 5.4 5.3 5.2 5.0 5.0 5.1 5.2 5.3 5.2 5.4
5.7 5.6 5.7 5.8 5.7 5.7 5.5 5.4 5.3 5.4 5.6 5.6 5.6 5.7 5.6 5.5 5.5 5.5 5.4 5.3 5.3 5.3 5.3 5.4 5.5 5.4 5.4 5.3 5.4 5.5 5.5 5.4 5.4 5.2 5.1 5.0 4.9 4.8 4.9 5.1 5.2 5.1 4.8
5.9 5.8 5.7 5.8 5.9 5.7 5.6 5.7 5.9 5.9 5.8 5.8 5.8 5.8 5.7 5.5 5.5 5.4 5.5 5.6 5.5 5.5 5.5 5.4 5.4 5.4 5.1 5.0 5.2 5.3 5.2 5.2 5.1 5.1 5.1 5.0 5.0 5.1 5.1 5.1 5.0 5.0 4.9
6.0 5.9 5.8 5.6 5.9 5.9 5.7 5.7 5.9 5.9 6.0 6.0 5.9 5.8 5.8 5.6 5.5 5.4 5.4 5.6 5.6 5.7 5.7 5.7 5.4 5.2 5.2 5.0 5.0 5.1 5.1 5.0 5.1 5.0 4.9 4.9 4.9 5.0 5.0 5.0 5.2 5.2 5.2
6.1 5.9 5.9 5.8 5.8 5.9 5.9 5.9 6.0 5.9 6.0 6.1 5.9 5.8 5.9 5.9 5.9 5.7 5.9 5.9 6.0 6.1 5.9 5.7 5.7 5.6 5.3 5.1 4.9 5.0 5.0 4.9 4.8 4.8 4.8 4.5 4.7 4.7 4.8 4.9 5.2 5.2 5.2
5.9 5.9 5.8 5.6 5.7 5.6 5.8 5.9 5.9 6.0 6.1 6.1 6.0 5.9 5.8 6.1 6.1 6.0 6.1 6.2 6.2 6.1 6.1 6.2 6.3 6.1 5.7 5.4 5.1 4.9 4.9 4.9 4.8 4.8 4.6 4.6 4.7 4.8 4.8 4.7 5.1 5.2 5.2
5.7 5.9 5.9 5.8 5.8 5.6 5.7 5.8 5.8 6.0 5.9 6.0 6.0 6.0 6.1 6.1 6.1 6.0 6.0 6.0 5.9 6.0 6.0 6.4 6.6 6.1 5.8 5.7 5.4 5.2 5.1 4.9 4.8 4.8 4.6 4.6 4.7 4.7 5.0 5.0 5.0 5.0 5.4
6.0 6.0 6.1 5.9 6.0 5.8 5.7 5.8 5.7 5.7 5.9 6.0 6.0 5.9 6.0 6.0 6.1 6.4 6.2 6.1 6.2 6.2 6.5 6.4 6.3 6.0 5.8 5.7 5.5 5.3 5.1 5.1 4.9 4.9 4.7 4.6 4.6 4.6 4.8 4.8 5.1 5.0 5.2
6.0 5.9 6.0 6.2 6.2 6.3 6.1 5.7 5.9 5.8 5.8 6.0 5.8 5.8 5.9 6.1 6.1 6.0 6.1 6.1 6.2 6.2 6.1 6.1 6.1 6.0 5.9 5.9 5.7 5.5 5.2 5.2 4.9 5.0 4.8 4.8 4.9 5.1 4.9 4.8 5.0 5.1 5.1
6.1 6.0 5.8 6.0 6.3 6.2 6.1 6.2 5.9 6.0 5.7 5.9 5.9 5.9 5.9 6.0 5.9 5.9 6.1 6.2 6.2 5.9 5.9 6.1 6.2 6.1 5.7 5.4 5.5 5.4 5.4 5.2 5.0 4.8 5.0 5.0 5.0 4.9 5.3 5.4 5.4 5.3 5.1
5.8 5.9 5.9 6.1 6.3 6.3 6.2 5.9 6.1 6.2 6.0 6.0 5.9 6.0 5.9 5.7 5.9 6.0 6.1 6.3 6.1 6.1 6.2 6.3 6.2 6.2 5.9 5.4 5.4 5.4 5.4 5.4 5.6 5.2 4.9 5.0 5.2 5.4 5.8 5.7 5.7 5.3 5.3
6.2 6.3 6.3 6.0 6.0 6.3 6.4 6.2 6.0 6.0 6.0 6.0 5.8 5.8 6.1 5.9 5.7 5.7 5.8 5.9 6.1 6.4 6.3 6.4 6.2 5.9 5.5 5.3 5.3 5.4 5.7 5.4 5.3 5.1 5.1 5.1 5.3 5.7 5.7 5.4 5.7 5.6 5.7
6.5 6.7 6.6 6.5 6.5 6.6 6.5 6.4 6.4 6.1 6.0 5.9 5.9 6.0 6.0 6.1 5.7 5.6 5.9 6.1 6.0 6.1 6.2 6.5 6.2 5.6 5.6 5.5 5.7 5.6 5.7 5.7 5.5 5.3 5.3 5.4 5.6 5.4 5.5 5.5 5.7 5.6 5.7
6.9 6.8 6.9 6.7 6.6 6.9 6.7 6.6 6.7 6.6 6.3 6.2 6.1 6.0 6.1 5.9 5.9 5.7 5.9 6.0 6.0 5.9 5.9 6.1 6.0 6.2 5.9 6.1 6.0 5.5 5.7 5.4 5.5 5.4 5.4 5.4 5.3 5.3 5.4 5.9 5.6 5.8 6.0
6.7 6.7 6.7 6.6 6.9 7.1 6.9 6.6 6.4 6.7 6.5 6.4 6.3 6.4 6.3 6.2 6.3 6.3 6.4 6.1 5.9 5.8 5.9 5.8 5.9 6.0 6.0 5.9 5.7 5.7 5.6 5.5 5.4 5.3 5.5 5.6 5.6 5.8 5.5 5.6 5.9 5.9 5.8
6.4 6.6 6.9 7.1 7.1 7.1 7.1 6.7 6.4 6.6 6.6 6.7 6.8 6.7 6.7 6.7 6.4 6.2 6.2 6.0 5.9 5.8 5.7 5.7 5.6 5.4 5.6 5.6 5.6 5.6 5.7 5.5 5.5 5.3 5.3 5.6 6.0 5.9 5.9 6.2 6.1 6.1 6.1
6.2 6.3 6.3 6.7 6.9 7.0 6.9 6.6 6.7 6.9 6.9 6.9 7.0 6.8 6.4 6.4 6.2 6.3 6.3 6.1 6.1 6.2 6.0 5.8 5.4 5.7 5.9 5.6 5.9 5.6 5.6 5.5 5.6 5.5 5.9 5.9 5.7 6.0 6.4 6.5 6.4 6.3 6.3
5.7 6.0 6.2 6.4 6.5 6.5 6.6 6.7 6.9 6.9 6.7 6.6 6.5 6.4 6.2 6.2 6.3 6.4 6.3 6.2 6.2 6.1 5.9 5.5 5.4 5.8 5.6 5.9 5.9 5.6 5.5 5.7 5.5 6.1 6.6 6.6 6.4 6.3 6.3 6.4 6.4 6.3 6.4
5.5 5.6 5.8 6.1 6.2 6.3 6.4 6.3 6.3 6.4 6.3 6.1 6.1 6.2 6.3 6.3 6.3 6.3 6.5 6.2 5.7 5.6 5.5 5.6 5.4 5.5 5.5 5.6 5.9 5.5 5.8 6.0 6.3 6.5 6.6 6.5 6.3 6.2 6.2 6.2 6.2 6.3 6.3
4.8 5.0 5.0 5.0 5.4 5.5 5.6 5.7 5.9 6.0 5.8 5.7 5.7 5.6 5.6 5.7 5.8 5.9 5.6 5.5 5.6 5.5 5.9 5.7 5.6 5.5 5.7 6.1 6.0 6.1 6.4 6.5 6.3 6.0 6.0 6.1 6.1 6.1 6.0 6.0 6.1 6.2 6.3
5.3 5.1 5.1 5.2 5.2 5.0 5.0 5.3 5.2 5.5 5.6 5.4 5.0 5.4 5.2 5.2 5.7 5.8 5.7 5.7 5.8 5.7 6.4 6.4 6.1 6.3 6.4 6.5 6.3 6.1 6.2 6.2 6.0 5.9 6.1 5.8 5.9 5.9 5.8 5.9 5.9 6.0 6.1
5.7 5.4 5.4 5.4 5.5 5.2 5.2 5.1 5.1 5.2 5.3 4.9 5.3 5.5 5.6 5.6 5.8 6.0 6.3 6.4 6.4 6.4 6.0 5.8 5.8 5.8 5.8 5.8 5.7 5.7 5.8 5.8 5.9 5.7 5.8 5.9 5.8 5.8 5.8 5.8 5.9 6.0 6.0
5.5 5.5 5.5 5.5 5.5 5.6 5.7 5.4 5.5 5.6 5.6 5.7 5.6 5.6 5.9 5.7 5.7 5.8 5.9 6.0 5.9 5.7 5.6 5.6 5.7 5.7 5.7 5.6 5.6 5.6 5.7 5.7 5.6 5.5 5.9 6.2 5.9 5.9 5.7 5.7 5.7 5.6 5.5
5.3 5.3 5.3 5.3 5.3 5.4 5.6 5.6 5.6 5.6 5.7 5.7 5.6 5.7 5.6 5.7 5.8 5.7 5.6 5.5 5.4 5.3 5.2 5.2 5.2 5.2 5.2 5.2 5.3 5.3 5.4 5.6 5.7 5.6 5.6 5.9 5.5 5.7 5.5 5.0 5.1 5.0 4.9
5.1 5.2 5.3 5.3 5.3 5.2 5.2 5.2 5.3 5.4 5.5 5.4 5.4 5.4 5.4 5.4 5.3 5.2 5.1 5.0 5.0 5.1 5.1 5.1 5.0 4.9 4.8 4.8 4.8 4.9 5.1 5.2 5.4 5.4 5.2 5.4 5.3 5.3 5.0 4.6 4.5 4.3 4.2
5.1 5.1 5.1 5.2 5.3 5.3 5.2 5.2 5.2 5.2 5.2 5.2 5.2 5.2 5.1 5.1 5.1 5.0 4.9 4.8 4.7 4.7 4.6 4.4 4.4 4.4 4.6 4.6 4.6 4.6 4.6 4.7 4.7 5.0 4.8 5.0 5.0 4.7 5.2 4.7 4.5 4.1 3.9
Wind_Speed
6 8 8 9 10 11 12 9 11 9 9 10 11 10 9 11 12 13 15 18 17 20 20 19 17 17 17 17 18 18 17 17 17 16 16 15 16 15 15 15 14 13 12
8 5 5 6 9 12 13 12 9 8 7 7 7 10 11 11 13 12 16 17 17 20 21 21 20 19 19 19 20 20 19 17 19 19 18 17 17 16 16 16 16 16 16
11 9 6 6 8 13 14 12 8 7 5 6 8 6 9 12 12 12 14 16 18 18 23 22 22 21 21 21 21 21 20 18 19 20 19 19 18 18 17 18 18 19 19
13 9 7 8 13 11 10 8 7 7 7 6 7 7 6 7 9 12 13 14 15 15 18 21 23 23 22 23 23 22 22 21 21 21 21 21 21 20 20 19 21 21 20
11 9 7 8 12 6 8 8 8 8 5 6 7 5 4 5 7 9 8 12 16 16 15 20 24 25 25 24 25 25 23 23 23 22 21 23 23 23 22 23 23 21 20
13 7 5 7 6 7 7 6 9 7 4 7 6 6 5 5 6 7 9 12 12 15 18 17 16 17 25 24 24 26 25 24 23 22 23 23 24 24 25 24 23 20 23
11 6 4 5 7 9 10 10 7 8 9 3 2 4 6 6 8 6 5 5 5 10 12 14 14 14 14 20 21 23 24 26 24 23 21 21 21 22 23 21 21 21 22
11 6 6 6 6 7 8 8 8 3 5 6 4 1 2 2 6 9 6 6 9 6 7 11 12 14 15 15 19 22 21 23 25 24 20 19 17 17 15 16 18 19 22
8 6 6 5 7 6 7 8 8 9 7 5 7 4 2 4 0 1 5 4 6 4 5 5 9 13 15 15 16 16 20 16 16 20 17 14 14 14 13 15 18 20 21
6 6 5 6 6 4 7 6 7 9 8 7 4 7 2 3 3 2 2 3 4 5 6 4 5 10 14 13 14 13 10 11 11 13 13 13 16 14 15 16 18 19 21
6 6 5 5 5 5 7 7 5 8 8 4 5 3 4 4 2 3 6 4 1 3 4 5 5 4 9 10 8 9 8 7 9 10 12 12 12 14 15 14 13 17 19
4 5 5 5 5 5 6 6 7 6 7 6 4 4 4 3 3 4 6 5 5 5 7 5 5 5 7 7 9 7 7 11 7 7 9 10 10 10 11 13 15 16 18
3 5 4 4 3 5 5 5 5 8 6 6 5 4 4 4 3 3 3 4 5 3 3 3 5 4 4 7 8 10 8 5 3 2 3 6 8 10 12 14 16 18 19
4 4 5 5 5 4 3 5 5 5 5 5 6 5 3 4 3 4 5 4 7 4 3 5 2 3 2 0 5 5 7 9 7 7 7 8 9 12 13 16 18 20 22
4 5 2 1 2 1 2 4 3 6 5 4 4 5 3 3 3 5 5 5 6 7 5 3 3 5 5 9 12 11 10 10 9 9 10 11 11 12 14 16 17 18 19
6 5 4 4 3 3 3 1 1 2 3 3 3 4 3 3 5 4 4 5 7 7 8 1 2 3 4 7 15 12 11 11 10 11 10 10 11 13 15 17 18 20 21
5 4 3 3 5 5 5 5 5 5 4 4 4 4 4 4 2 3 3 2 2 1 6 2 3 4 4 7 6 8 7 7 7 11 11 13 15 16 18 18 19 20 21
5 4 4 6 6 6 5 5 5 6 6 6 6 7 7 5 6 7 5 7 5 5 3 2 4 4 5 5 4 3 4 7 9 12 16 15 15 16 16 17 21 21 22
7 8 7 7 6 6 6 6 6 7 7 7 7 7 6 8 8 6 6 5 4 4 3 2 2 3 1 3 3 3 4 4 8 13 14 12 12 17 19 20 20 20 22
6 7 7 7 6 7 6 7 6 7 7 7 7 7 7 7 6 7 6 4 3 4 3 3 3 2 2 2 2 4 6 3 7 8 9 9 17 18 19 20 20 20 21
5 5 6 5 4 5 4 5 5 5 6 7 8 8 9 10 12 12 5 4 4 5 3 3 3 3 3 3 3 3 4 7 7 3 2 6 7 8 11 15 17 18 22
4 5 5 5 5 4 8 7 7 5 6 6 6 6 7 9 10 15 13 12 8 3 3 2 2 1 2 2 2 3 6 6 5 1 8 11 4 8 7 12 19 24 23
3 5 5 5 5 5 6 8 10 5 5 5 5 5 4 4 7 6 9 9 8 8 7 3 1 2 2 3 5 5 4 5 5 7 6 7 6 7 7 12 22 23 17
2 2 3 3 3 3 6 8 10 6 5 5 5 5 5 4 4 5 5 5 4 3 3 2 1 3 4 5 3 5 7 7 5 5 3 6 5 7 6 12 20 16 14
2 2 2 3 3 0 5 8 7 5 5 4 3 5 4 3 5 8 5 4 3 3 4 8 9 8 9 10 8 3 4 6 7 7 3 3 2 8 7 9 5 11 22
3 4 4 4 6 3 4 6 6 4 4 3 3 2 3 2 4 5 5 2 2 0 1 3 4 5 7 7 10 4 4 5 6 4 1 5 5 4 4 3 4 8 8
Wind_Direction
232 223 224 217 215 207 208 210 212 209 209 212 220 224 236 240 242 248 257 258 257 235 243 254 252 249 250 253 255 258 260 263 259 261 263 261 259 257 251 252 249 251 251
228 218 219 216 219 209 211 211 211 211 211 206 220 220 234 241 245 239 245 252 256 242 240 248 254 256 256 256 257 259 258 258 259 257 257 259 255 256 255 252 255 253 250
239 238 232 218 222 215 213 213 215 206 208 208 218 214 226 235 242 241 239 242 246 248 242 245 250 254 254 256 258 260 260 256 254 253 253 253 249 250 252 251 248 253 254
251 243 231 235 226 213 216 222 212 213 222 216 228 223 217 219 227 232 237 231 237 238 243 242 244 250 253 255 259 261 261 258 256 255 258 257 253 247 248 252 245 244 249
258 238 237 242 225 215 222 219 219 213 207 215 223 222 210 222 229 230 230 229 231 231 234 243 245 245 247 252 258 261 262 260 258 258 257 259 255 252 250 249 251 245 252
257 232 240 244 247 224 223 206 223 210 197 211 211 226 224 227 233 229 228 227 227 229 230 236 243 247 250 249 254 257 259 261 259 259 260 260 258 254 252 254 257 255 248
255 243 231 230 231 228 221 215 217 222 228 189 167 240 237 237 237 236 230 229 239 240 239 239 238 241 249 252 250 251 255 260 262 262 266 264 268 265 257 257 269 263 261
237 245 236 240 226 242 218 210 205 212 239 196 211 199 253 259 232 234 225 228 238 245 245 243 233 234 240 246 245 249 251 261 266 268 271 270 275 270 269 268 267 268 273
236 232 241 248 254 229 243 211 206 206 235 215 200 181 176 221 31 261 232 220 236 234 260 260 252 249 248 243 246 250 255 255 269 274 276 278 291 288 280 277 279 285 285
253 245 237 232 239 233 236 221 209 217 212 224 221 234 264 145 181 298 303 272 246 252 261 266 255 255 249 246 242 238 228 251 262 276 281 290 288 278 282 286 293 301 298
257 256 253 253 234 223 240 223 209 215 208 204 213 195 216 226 224 215 266 258 258 249 256 249 250 252 256 240 228 227 240 262 305 314 315 306 296 301 308 313 316 309 307
273 273 260 252 252 244 235 230 222 216 225 227 221 210 180 168 191 215 243 255 258 247 247 244 248 248 237 230 220 212 264 274 290 313 305 300 307 321 314 311 306 302 302
267 266 271 272 262 245 239 217 215 233 208 218 212 212 197 200 177 185 245 258 264 257 260 235 245 236 229 239 246 229 240 274 321 27 340 335 347 331 319 311 307 307 302
266 271 280 277 278 253 230 246 240 237 202 209 199 209 204 200 184 215 230 255 276 255 234 254 12 335 313 268 76 99 86 65 54 35 15 354 339 326 322 315 311 305 300
313 295 241 265 4 326 220 178 230 245 223 203 199 211 203 200 211 222 230 223 253 275 270 208 164 34 41 66 43 46 50 23 22 16 4 352 344 328 320 313 310 308 307
349 351 352 10 36 41 351 102 130 113 212 227 228 196 210 218 232 229 228 240 242 256 274 196 88 104 53 59 34 25 17 12 11 360 351 348 335 328 321 313 309 308 305
353 3 22 38 49 31 15 39 35 22 45 38 33 18 31 17 34 34 10 17 63 7 259 80 80 28 66 42 33 15 8 354 358 355 346 334 327 323 321 316 318 315 310
21 31 31 43 42 41 36 42 65 54 58 57 58 74 62 63 50 48 56 47 34 17 28 96 51 37 44 36 7 9 1 356 357 335 330 325 325 324 322 324 321 316 313
26 35 43 45 46 42 50 52 53 70 68 66 61 68 74 87 71 58 57 42 54 37 4 50 48 42 11 29 356 350 349 340 330 324 324 325 336 330 320 316 312 311 309
53 43 39 37 37 42 40 57 56 65 65 70 67 68 63 62 88 93 62 32 34 65 23 43 41 20 28 354 3 350 336 333 326 321 317 330 325 319 320 320 314 308 309
56 65 66 52 38 51 46 51 62 72 73 71 71 71 69 74 74 79 82 48 41 49 31 32 33 20 7 0 351 319 318 322 310 244 306 326 324 318 313 316 310 310 316
42 51 51 42 36 40 69 87 92 84 89 92 84 72 66 56 58 65 62 54 59 77 68 60 32 358 296 290 280 295 317 323 332 38 350 321 321 309 311 308 308 314 315
64 64 60 58 46 22 82 86 88 81 92 92 96 100 94 80 73 64 58 55 43 46 59 123 72 267 254 240 320 305 292 301 292 296 302 304 311 298 294 299 311 316 320
126 119 101 82 65 38 92 107 103 94 91 100 113 126 121 111 114 110 85 65 50 47 27 59 86 298 286 301 300 314 323 316 296 276 267 292 296 299 309 308 305 318 327
178 180 160 150 145 43 121 131 120 113 107 98 102 123 112 79 44 85 78 63 41 25 28 30 3 349 340 339 335 359 344 329 316 313 291 263 304 311 299 289 294 322 325
189 170 183 199 198 191 145 134 133 128 115 114 79 80 112 106 34 50 105 108 56 57 46 355 353 348 353 345 352 342 314 308 313 300 56 339 312 337 309 279 326 311 315